EN

Hourly Weather Bolshoe Meretkozino

Today, 30 October, Friday

Time Temperature Precipitation Wind Pressure Humidity
00:00 -1°C° 0 mm 4 mps 759 mmHg 81%
01:00 -1°C° 0 mm 4 mps 759 mmHg 84%
02:00 -1°C° 0 mm 4 mps 759 mmHg 86%
03:00 -1°C° 0 mm 4 mps 759 mmHg 88%
04:00 -1°C° 0 mm 4 mps 758 mmHg 87%
05:00 -1°C° 0 mm 4 mps 758 mmHg 87%
06:00 -1°C° 0 mm 4 mps 758 mmHg 87%
07:00 0°C° 0 mm 5 mps 757 mmHg 84%
08:00 +1°C° 0 mm 5 mps 757 mmHg 80%
09:00 +1°C° 0 mm 5 mps 758 mmHg 77%
10:00 +1°C° 0 mm 5 mps 757 mmHg 77%
11:00 +2°C° 0 mm 5 mps 757 mmHg 77%
12:00 +2°C° 0 mm 5 mps 757 mmHg 78%
13:00 +2°C° 0.6 mm 5 mps 757 mmHg 80%
14:00 +2°C° 0.6 mm 5 mps 756 mmHg 82%
15:00 +2°C° 0 mm 5 mps 756 mmHg 86%
16:00 +2°C° 0.2 mm 5 mps 756 mmHg 85%
17:00 +3°C° 0.2 mm 4 mps 755 mmHg 83%
18:00 +3°C° 0.2 mm 4 mps 755 mmHg 82%
19:00 +3°C° 0 mm 4 mps 755 mmHg 82%
20:00 +3°C° 0 mm 4 mps 755 mmHg 82%
21:00 +3°C° 0 mm 3 mps 755 mmHg 81%
22:00 +3°C° 0 mm 3 mps 755 mmHg 82%
23:00 +3°C° 0 mm 3 mps 754 mmHg 82%

Tomorrow, 31 October, Saturday

Time Temperature Precipitation Wind Pressure Humidity
00:00 +3°C° 0 mm 3 mps 754 mmHg 83%
01:00 +3°C° 0.1 mm 3 mps 754 mmHg 83%
02:00 +3°C° 0.1 mm 3 mps 754 mmHg 83%
03:00 +3°C° 0.1 mm 3 mps 753 mmHg 83%
04:00 +3°C° 0 mm 3 mps 753 mmHg 84%
05:00 +3°C° 0 mm 4 mps 753 mmHg 84%
06:00 +3°C° 0 mm 4 mps 753 mmHg 85%
07:00 +3°C° 0.1 mm 4 mps 753 mmHg 86%
08:00 +3°C° 0.1 mm 4 mps 752 mmHg 87%
09:00 +3°C° 0.1 mm 4 mps 752 mmHg 88%
10:00 +3°C° 0.8 mm 4 mps 752 mmHg 90%
11:00 +3°C° 0.8 mm 4 mps 752 mmHg 92%
12:00 +3°C° 0.8 mm 4 mps 752 mmHg 93%
13:00 +3°C° 0.3 mm 3 mps 752 mmHg 93%
14:00 +3°C° 0.3 mm 3 mps 752 mmHg 93%
15:00 +3°C° 0.3 mm 3 mps 752 mmHg 92%
16:00 +4°C° 0.1 mm 2 mps 752 mmHg 92%
17:00 +4°C° 0.1 mm 2 mps 753 mmHg 93%
18:00 +4°C° 0.1 mm 2 mps 753 mmHg 93%
19:00 +4°C° 0.1 mm 2 mps 753 mmHg 94%
20:00 +4°C° 0.1 mm 2 mps 753 mmHg 94%
21:00 +4°C° 0.1 mm 2 mps 753 mmHg 95%
22:00 +4°C° 0 mm 2 mps 753 mmHg 94%
23:00 +4°C° 0 mm 2 mps 754 mmHg 93%

Day after tomorrow, 1 November, Sunday

Time Temperature Precipitation Wind Pressure Humidity
00:00 +3°C° 0 mm 3 mps 754 mmHg 93%
01:00 +3°C° 0 mm 3 mps 754 mmHg 93%
02:00 +2°C° 0 mm 3 mps 755 mmHg 94%
03:00 +2°C° 0 mm 3 mps 755 mmHg 95%
04:00 +2°C° 0 mm 3 mps 755 mmHg 94%
05:00 +3°C° 0 mm 4 mps 756 mmHg 93%
06:00 +3°C° 0 mm 4 mps 756 mmHg 92%
07:00 +3°C° 0 mm 4 mps 756 mmHg 90%
08:00 +2°C° 0 mm 5 mps 757 mmHg 87%
09:00 +2°C° 0 mm 5 mps 757 mmHg 84%
10:00 +2°C° 0 mm 5 mps 757 mmHg 81%
11:00 +3°C° 0 mm 5 mps 758 mmHg 77%
12:00 +4°C° 0 mm 4 mps 758 mmHg 74%
13:00 +4°C° 0 mm 4 mps 758 mmHg 75%
14:00 +3°C° 0 mm 4 mps 758 mmHg 76%
15:00 +3°C° 0 mm 4 mps 758 mmHg 77%
16:00 +3°C° 0 mm 3 mps 758 mmHg 78%
17:00 +3°C° 0 mm 3 mps 758 mmHg 79%
18:00 +2°C° 0 mm 3 mps 759 mmHg 80%
19:00 +2°C° 0 mm 3 mps 759 mmHg 80%
20:00 +3°C° 0 mm 2 mps 759 mmHg 80%
21:00 +3°C° 0 mm 2 mps 759 mmHg 80%
22:00 +3°C° 0 mm 2 mps 759 mmHg 80%
23:00 +3°C° 0 mm 2 mps 758 mmHg 80%

2 November, Monday

Time Temperature Precipitation Wind Pressure Humidity
00:00 +3°C° 0 mm 2 mps 758 mmHg 81%
01:00 +3°C° 0 mm 2 mps 758 mmHg 81%
02:00 +3°C° 0 mm 2 mps 758 mmHg 81%
03:00 +2°C° 0 mm 2 mps 758 mmHg 82%
04:00 +2°C° 0 mm 2 mps 759 mmHg 82%
05:00 +1°C° 0 mm 3 mps 759 mmHg 82%
06:00 +1°C° 0 mm 3 mps 759 mmHg 82%
07:00 +1°C° 0 mm 3 mps 759 mmHg 79%
08:00 +1°C° 0 mm 3 mps 759 mmHg 77%
09:00 +2°C° 0 mm 3 mps 759 mmHg 75%
10:00 +2°C° 0 mm 3 mps 759 mmHg 73%
11:00 +2°C° 0 mm 3 mps 759 mmHg 71%
12:00 +1°C° 0 mm 4 mps 759 mmHg 69%
13:00 +1°C° 0 mm 4 mps 759 mmHg 69%
14:00 +1°C° 0 mm 4 mps 759 mmHg 69%
15:00 +1°C° 0 mm 4 mps 759 mmHg 69%
16:00 0°C° 0 mm 4 mps 760 mmHg 71%
17:00 0°C° 0 mm 4 mps 760 mmHg 74%
18:00 -1°C° 0 mm 4 mps 760 mmHg 77%
19:00 -1°C° 0 mm 4 mps 760 mmHg 77%
20:00 -1°C° 0 mm 4 mps 761 mmHg 77%
21:00 -1°C° 0 mm 4 mps 761 mmHg 78%
22:00 -1°C° 0 mm 4 mps 761 mmHg 79%
23:00 -2°C° 0 mm 4 mps 761 mmHg 80%

3 November, Tuesday

Time Temperature Precipitation Wind Pressure Humidity
00:00 -2°C° 0 mm 4 mps 761 mmHg 81%
01:00 -2°C° 0 mm 4 mps 761 mmHg 81%
02:00 -2°C° 0 mm 4 mps 761 mmHg 81%
03:00 -2°C° 0 mm 4 mps 761 mmHg 81%
04:00 -2°C° 0 mm 4 mps 762 mmHg 81%
05:00 -2°C° 0 mm 4 mps 762 mmHg 80%
06:00 -2°C° 0 mm 4 mps 762 mmHg 79%
07:00 -1°C° 0 mm 4 mps 762 mmHg 76%
08:00 -1°C° 0 mm 4 mps 762 mmHg 72%
09:00 -1°C° 0 mm 5 mps 762 mmHg 69%
10:00 0°C° 0 mm 4 mps 762 mmHg 66%
11:00 +1°C° 0 mm 4 mps 762 mmHg 63%
12:00 +1°C° 0 mm 4 mps 762 mmHg 60%
13:00 +1°C° 0 mm 4 mps 762 mmHg 60%
14:00 +2°C° 0 mm 3 mps 762 mmHg 61%
15:00 +2°C° 0 mm 3 mps 762 mmHg 62%
16:00 +2°C° 0 mm 3 mps 762 mmHg 64%
17:00 +2°C° 0 mm 3 mps 762 mmHg 66%
18:00 0°C° 0 mm 4 mps 762 mmHg 68%
19:00 +1°C° 0 mm 3 mps 762 mmHg 69%
20:00 +1°C° 0 mm 3 mps 762 mmHg 70%
21:00 +1°C° 0 mm 3 mps 762 mmHg 71%
22:00 +1°C° 0 mm 3 mps 762 mmHg 72%
23:00 +1°C° 0 mm 3 mps 762 mmHg 73%

4 November, Wednesday

Time Temperature Precipitation Wind Pressure Humidity
00:00 +1°C° 0 mm 3 mps 761 mmHg 74%
01:00 +1°C° 0 mm 3 mps 761 mmHg 75%
02:00 +1°C° 0 mm 3 mps 761 mmHg 75%
03:00 +2°C° 0 mm 3 mps 761 mmHg 76%
04:00 +3°C° 0 mm 2 mps 761 mmHg 77%
05:00 +3°C° 0 mm 2 mps 761 mmHg 78%
06:00 +2°C° 0 mm 2 mps 761 mmHg 79%
07:00 +3°C° 0 mm 2 mps 761 mmHg 78%
08:00 +3°C° 0 mm 2 mps 761 mmHg 78%
09:00 +4°C° 0 mm 2 mps 761 mmHg 77%
10:00 +4°C° 0 mm 2 mps 761 mmHg 74%
11:00 +5°C° 0 mm 2 mps 761 mmHg 70%
12:00 +6°C° 0 mm 2 mps 761 mmHg 67%
13:00 +7°C° 0 mm 1 mps 761 mmHg 69%
14:00 +7°C° 0 mm 1 mps 761 mmHg 70%
15:00 +6°C° 0 mm 1 mps 761 mmHg 72%
16:00 +6°C° 0 mm 1 mps 761 mmHg 74%
17:00 +5°C° 0 mm 1 mps 761 mmHg 76%
18:00 +5°C° 0 mm 1 mps 761 mmHg 78%
19:00 +5°C° 0 mm 1 mps 761 mmHg 79%
20:00 +5°C° 0 mm 1 mps 761 mmHg 80%
21:00 +5°C° 0 mm 1 mps 761 mmHg 81%
22:00 +4°C° 0 mm 1 mps 761 mmHg 82%
23:00 +4°C° 0 mm 1 mps 761 mmHg 83%
Show more